Location: Cahas Mountain Overlook
(37.0833°N, 80.1000°W)
Time: 11:51:13
(UTC-04:00)

Vanguard 1 Rocket - Pass Details

Date: 11 February 2026
Orbit: 653 x 4214 km, 34.3° (Epoch: 15 March)

Event Time Altitude Azimuth Distance (km) Brightness Sun altitude
Rises 19:49:28 0° 283° (WNW) 6,932 13.2 -23.1°
Reaches altitude 10° 19:53:29 10° 281° (W) 6,271 12.7 -23.9°
Maximum altitude 20:15:46 65° 206° (SSW) 4,425 10.7 -28.3°
Enters shadow 20:33:30 26° 136° (SE) 5,828 11.0 -31.8°
